Zurück zum Katalog

COSMOS 1191 DEB

AktivHEO
NORAD 12834·DEBRIS·🇷🇺 Russia

Gestartet Jul 2, 1980 von Plesetsk Cosmodrome

Loading…

Nächste Überflüge (nächste 24 Stunden)

TLE

AktuellSource: Space-Track

Epoche: Sep 14, 2026, 02:02 UTC

1 12834U 80057F   26257.08525546  .00000150  00000-0  00000-0 0  9991
2 12834  65.7604  94.5543 6625586  21.6529 356.7886  2.00151230243063

Verfolge COSMOS 1191 DEB in Echtzeit mit AllMySat

Download on the App Store